EW1669 Weather Reports


Display with metric or nautical units.
time (UTC)temp
F
wind
direction
speed
MPH
gust
MPH
rain 1hr
in
rain 24hr
in
rain mn
in
humidity
%
barometer
mb
20260509110717 56 107 0.0 0.0 0.00 0.00 0.00 46 1015.0
20260509110055 56 108 0.0 0.0 0.00 0.00 0.00 46 1015.0
20260509105456 56 107 0.0 0.0 0.00 0.00 0.00 46 1015.0
20260509104858 57 108 0.0 0.0 0.00 0.00 0.00 45 1015.0
20260509104313 57 107 0.0 0.0 0.00 0.00 0.00 43 1015.0
20260509103653 58 106 0.0 0.0 0.00 0.00 0.00 42 1015.0
20260509103056 58 116 0.0 0.0 0.00 0.00 0.00 42 1015.3
20260509102454 58 124 0.0 0.0 0.00 0.00 0.00 42 1015.0
20260509101902 59 133 0.0 1.0 0.00 0.00 0.00 41 1015.6
20260509101251 59 128 0.0 0.0 0.00 0.00 0.00 42 1015.3
20260509100900 59 124 0.0 2.0 0.00 0.00 0.00 42 1015.6
20260509100050 59 123 1.0 2.0 0.00 0.00 0.00 42 1015.3
20260509095508 59 114 0.0 0.0 0.00 0.00 0.00 41 1015.3
20260509094856 58 109 0.0 0.0 0.00 0.00 0.00 42 1015.3
20260509094252 58 110 0.0 0.0 0.00 0.00 0.00 42 1015.3
20260509093917 58 112 0.0 0.0 0.00 0.00 0.00 42 1015.3
20260509093051 59 103 0.0 0.0 0.00 0.00 0.00 42 1015.3
20260509092721 59 107 0.0 0.0 0.00 0.00 0.00 41 1015.3
20260509091843 59 103 0.0 0.0 0.00 0.00 0.00 41 1015.6
20260509091235 59 102 0.0 0.0 0.00 0.00 0.00 40 1015.3
20260509090655 60 102 0.0 0.0 0.00 0.00 0.00 40 1015.3
20260509090106 60 105 0.0 0.0 0.00 0.00 0.00 40 1015.3
20260509085739 60 119 0.0 0.0 0.00 0.00 0.00 39 1015.6
20260509084948 60 143 0.0 0.0 0.00 0.00 0.00 40 1015.3
20260509084352 60 135 0.0 0.0 0.00 0.00 0.00 40 1015.6
20260509083748 60 123 0.0 0.0 0.00 0.00 0.00 39 1015.3
20260509083154 60 97 0.0 0.0 0.00 0.00 0.00 40 1015.6
20260509082547 60 129 0.0 0.0 0.00 0.00 0.00 40 1015.6
20260509082000 60 113 0.0 0.0 0.00 0.00 0.00 39 1015.6
20260509081351 60 107 0.0 0.0 0.00 0.00 0.00 39 1015.6
20260509081118 60 129 0.0 0.0 0.00 0.00 0.00 39 1015.6
20260509080903 60 129 0.0 0.0 0.00 0.00 0.00 39 1015.6
20260509080251 60 127 0.0 0.0 0.00 0.00 0.00 39 1015.6
20260509075911 60 130 0.0 0.0 0.00 0.00 0.00 39 1015.6
20260509075320 60 110 0.0 1.0 0.00 0.00 0.00 39 1015.6
20260509074452 61 123 0.0 1.0 0.00 0.00 0.00 38 1015.6
20260509073856 61 126 0.0 1.0 0.00 0.00 0.00 38 1015.6
20260509073251 61 71 0.0 0.0 0.00 0.00 0.00 38 1015.6
20260509072652 61 130 0.0 0.0 0.00 0.00 0.00 37 1016.0
20260509072310 62 125 0.0 0.0 0.00 0.00 0.00 37 1015.6
20260509071513 62 104 0.0 0.0 0.00 0.00 0.00 37 1016.0
20260509071216 62 128 0.0 0.0 0.00 0.00 0.00 37 1015.6
20260509070439 62 106 0.0 2.0 0.00 0.00 0.00 36 1015.6
20260509070345 63 132 0.0 1.0 0.00 0.00 0.00 36 1015.6
20260509065252 63 108 0.0 3.0 0.00 0.00 0.00 36 1015.3
20260509064653 63 125 0.0 3.0 0.00 0.00 0.00 35 1015.3
20260509064055 63 121 0.0 2.0 0.00 0.00 0.00 35 1015.3
20260509063448 63 112 0.0 6.0 0.00 0.00 0.00 35 1015.0
20260509062852 64 110 3.0 6.0 0.00 0.00 0.00 35 1015.0
20260509062502 64 136 0.0 7.0 0.00 0.00 0.00 35 1015.0
20260509061652 64 110 0.0 7.0 0.00 0.00 0.00 34 1015.0
20260509061329 64 76 0.0 2.0 0.00 0.00 0.00 34 1015.3
20260509060813 64 107 0.0 1.0 0.00 0.00 0.00 34 1015.0
20260509060204 65 117 0.0 2.0 0.00 0.00 0.00 33 1015.0
20260509055353 65 112 0.0 2.0 0.00 0.00 0.00 33 1015.0
20260509055229 65 106 0.0 4.0 0.00 0.00 0.00 33 1015.0
20260509054131 65 117 2.0 4.0 0.00 0.00 0.00 33 1015.0
20260509053621 66 128 0.0 1.0 0.00 0.00 0.00 32 1015.3
20260509052951 66 88 0.0 1.0 0.00 0.00 0.00 32 1015.0
20260509052358 67 110 0.0 4.0 0.00 0.00 0.00 31 1015.0
20260509051753 67 92 0.0 9.0 0.00 0.00 0.00 31 1015.0
20260509051150 67 130 0.0 2.0 0.00 0.00 0.00 31 1015.0
20260509050550 67 102 0.0 3.0 0.00 0.00 0.00 31 1014.6
20260509050218 67 117 1.0 7.0 0.00 0.00 0.00 30 1014.6
20260509045353 67 118 1.0 6.0 0.00 0.00 0.00 30 1014.6
20260509044744 67 102 1.0 7.0 0.00 0.00 0.00 30 1014.6
20260509044150 68 104 0.0 7.0 0.00 0.00 0.00 30 1015.0
20260509043557 68 121 0.0 6.0 0.00 0.00 0.00 29 1015.0
20260509043213 68 117 1.0 3.0 0.00 0.00 0.00 29 1014.6
20260509042436 69 99 1.0 2.0 0.00 0.00 0.00 29 1015.0
20260509041838 69 115 0.0 1.0 0.00 0.00 0.00 29 1015.0
20260509041304 69 122 0.0 2.0 0.00 0.00 0.00 28 1014.6
20260509040652 69 126 1.0 2.0 0.00 0.00 0.00 28 1015.0
20260509040317 69 114 0.0 6.0 0.00 0.00 0.00 28 1015.0
20260509035447 69 99 2.0 6.0 0.00 0.00 0.00 28 1015.0
20260509034859 70 87 2.0 4.0 0.00 0.00 0.00 27 1015.0
20260509034252 70 123 0.0 3.0 0.00 0.00 0.00 27 1015.0
20260509033654 70 98 0.0 1.0 0.00 0.00 0.00 27 1015.0
20260509033047 71 129 0.0 0.0 0.00 0.00 0.00 27 1015.0
20260509032440 71 110 0.0 0.0 0.00 0.00 0.00 26 1015.0
20260509031900 71 130 0.0 0.0 0.00 0.00 0.00 26 1014.6
20260509031252 71 110 0.0 4.0 0.00 0.00 0.00 26 1014.6
20260509031132 71 59 0.0 4.0 0.00 0.00 0.00 26 1015.0
20260509030312 71 157 2.0 4.0 0.00 0.00 0.00 26 1014.3
20260509025455 72 86 0.0 0.0 0.00 0.00 0.00 25 1014.6
20260509024852 72 108 0.0 1.0 0.00 0.00 0.00 25 1014.6
20260509024307 72 83 0.0 2.0 0.00 0.00 0.00 25 1014.6
20260509023700 73 89 0.0 3.0 0.00 0.00 0.00 25 1013.9
20260509023055 73 80 1.0 2.0 0.00 0.00 0.00 25 1014.3
20260509022506 73 56 0.0 0.0 0.00 0.00 0.00 24 1014.3
20260509022336 74 65 0.0 0.0 0.00 0.00 0.00 24 1014.3
20260509021254 74 89 0.0 0.0 0.00 0.00 0.00 24 1013.9
20260509020623 74 73 0.0 0.0 0.00 0.00 0.00 24 1013.9
20260509020059 75 69 0.0 0.0 0.00 0.00 0.00 24 1013.9
20260509015512 75 87 0.0 0.0 0.00 0.00 0.00 23 1013.9
20260509014950 75 38 0.0 0.0 0.00 0.00 0.00 23 1013.9
20260509014607 76 64 0.0 0.0 0.00 0.00 0.00 23 1013.6
20260509013750 76 40 0.0 0.0 0.00 0.00 0.00 22 1013.6
20260509013159 77 31 0.0 0.0 0.00 0.00 0.00 22 1013.6
20260509012605 77 52 0.0 0.0 0.00 0.00 0.00 21 1013.9
20260509011338 78 81 0.0 2.0 0.00 0.00 0.00 21 1013.6
20260509010738 78 30 1.0 2.0 0.00 0.00 0.00 21 1013.6
20260509010146 79 72 0.0 2.0 0.00 0.00 0.00 21 1013.3
20260509005612 79 22 1.0 2.0 0.00 0.00 0.00 20 1013.6
20260509005002 79 49 0.0 3.0 0.00 0.00 0.00 20 1013.6
20260509004349 79 52 1.0 4.0 0.00 0.00 0.00 20 1013.3
20260509003739 80 65 0.0 2.0 0.00 0.00 0.00 20 1013.6
20260509003523 80 74 0.0 3.0 0.00 0.00 0.00 20 1013.3
20260509002507 81 61 0.0 0.0 0.00 0.00 0.00 20 1013.3
20260509002138 81 54 0.0 3.0 0.00 0.00 0.00 20 1013.3
20260509001612 81 31 0.0 7.0 0.00 0.00 0.00 19 1013.6
20260509000751 81 7 3.0 7.0 0.00 0.00 0.00 19 1013.3
20260509000157 81 70 2.0 6.0 0.00 0.00 0.00 19 1013.3
20260508235551 81 14 0.0 1.0 0.00 0.00 0.00 19 1013.3
20260508234949 82 54 0.0 6.0 0.00 0.00 0.00 18 1012.9
20260508234350 82 5 4.0 6.0 0.00 0.00 0.00 18 1013.3
20260508233754 82 97 0.0 3.0 0.00 0.00 0.00 18 1013.3
20260508233203 82 345 0.0 9.0 0.00 0.00 0.00 18 1013.3
20260508232559 83 32 5.0 15.0 0.00 0.00 0.00 18 1012.9
20260508232433 83 332 0.0 15.0 0.00 0.00 0.00 16 1013.3
20260508231400 83 352 0.0 0.0 0.00 0.00 0.00 17 1012.9
20260508230847 83 25 0.0 7.0 0.00 0.00 0.00 17 1012.9
20260508230255 83 334 1.0 7.0 0.00 0.00 0.00 17 1012.9
20260508225655 84 327 0.0 0.0 0.00 0.00 0.00 16 1013.3
20260508225312 83 18 0.0 10.0 0.00 0.00 0.00 16 1012.9
20260508224500 85 338 8.0 10.0 0.00 0.00 0.00 15 1012.9
20260508223857 85 341 1.0 2.0 0.00 0.00 0.00 16 1012.9
20260508223307 84 18 0.0 3.0 0.00 0.00 0.00 16 1012.6
20260508222633 84 0 0.0 2.0 0.00 0.00 0.00 17 1012.6
20260508222054 85 335 0.0 0.0 0.00 0.00 0.00 16 1012.9
20260508221412 84 327 0.0 0.0 0.00 0.00 0.00 16 1012.9
20260508221003 85 352 0.0 0.0 0.00 0.00 0.00 15 1012.9
20260508220151 84 357 0.0 0.0 0.00 0.00 0.00 16 1012.9
20260508215601 85 22 0.0 0.0 0.00 0.00 0.00 16 1012.9
20260508214953 85 335 0.0 7.0 0.00 0.00 0.00 15 1013.3
20260508214353 85 55 2.0 7.0 0.00 0.00 0.00 15 1013.3
20260508213756 85 342 0.0 2.0 0.00 0.00 0.00 15 1013.3
20260508213419 84 350 1.0 2.0 0.00 0.00 0.00 15 1013.3
20260508213030 84 353 0.0 4.0 0.00 0.00 0.00 15 1013.3
20260508211951 84 352 0.0 0.0 0.00 0.00 0.00 16 1013.6
20260508211446 83 355 0.0 3.0 0.00 0.00 0.00 16 1013.6
20260508211353 83 324 0.0 1.0 0.00 0.00 0.00 16 1013.3
20260508210858 84 349 1.0 3.0 0.00 0.00 0.00 15 1013.6
20260508205500 85 8 0.0 2.0 0.00 0.00 0.00 16 1013.3
20260508205333 84 98 0.0 8.0 0.00 0.00 0.00 17 1013.6
20260508204331 85 334 0.0 8.0 0.00 0.00 0.00 16 1013.6
20260508203737 84 3 0.0 2.0 0.00 0.00 0.00 17 1013.3
20260508203157 83 357 0.0 1.0 0.00 0.00 0.00 17 1013.6
20260508202653 85 327 0.0 1.0 0.00 0.00 0.00 16 1013.9
20260508202342 84 114 0.0 1.0 0.00 0.00 0.00 15 1013.6
20260508201605 84 112 0.0 0.0 0.00 0.00 0.00 15 1013.9
20260508200958 83 356 0.0 8.0 0.00 0.00 0.00 17 1013.6
20260508200351 84 1 6.0 8.0 0.00 0.00 0.00 16 1013.9
20260508195752 84 328 2.0 6.0 0.00 0.00 0.00 17 1013.6
20260508195149 84 334 2.0 7.0 0.00 0.00 0.00 17 1013.9
20260508194546 83 344 3.0 11.0 0.00 0.00 0.00 16 1013.6
20260508194016 83 267 0.0 4.0 0.00 0.00 0.00 18 1013.6
20260508193840 83 348 0.0 4.0 0.00 0.00 0.00 16 1013.9
20260508192749 83 327 0.0 4.0 0.00 0.00 0.00 16 1013.6
20260508192157 82 6 1.0 8.0 0.00 0.00 0.00 16 1013.9
20260508191552 83 342 4.0 8.0 0.00 0.00 0.00 16 1013.9
20260508190955 83 328 5.0 11.0 0.00 0.00 0.00 16 1013.9
20260508190348 83 340 0.0 4.0 0.00 0.00 0.00 17 1013.6
20260508185807 83 303 0.0 4.0 0.00 0.00 0.00 17 1013.9
20260508185245 83 15 0.0 9.0 0.00 0.00 0.00 18 1013.9
20260508184654 82 9 4.0 9.0 0.00 0.00 0.00 17 1014.3
20260508184319 82 315 0.0 1.0 0.00 0.00 0.00 16 1013.9
20260508183450 81 169 0.0 6.0 0.00 0.00 0.00 18 1013.9
20260508183322 81 6 2.0 6.0 0.00 0.00 0.00 18 1014.6
20260508182252 81 4 0.0 4.0 0.00 0.00 0.00 19 1014.3
20260508181911 82 316 0.0 9.0 0.00 0.00 0.00 18 1014.6
20260508181052 80 332 0.0 0.0 0.00 0.00 0.00 20 1014.3
20260508180505 81 254 0.0 0.0 0.00 0.00 0.00 20 1014.3
20260508175937 80 16 0.0 1.0 0.00 0.00 0.00 18 1014.6
20260508175631 81 339 0.0 0.0 0.00 0.00 0.00 20 1014.6
20260508175014 80 303 0.0 0.0 0.00 0.00 0.00 20 1015.0
20260508174334 79 16 0.0 1.0 0.00 0.00 0.00 21 1014.6
20260508173457 79 17 0.0 1.0 0.00 0.00 0.00 21 1015.0
20260508172850 80 341 0.0 0.0 0.00 0.00 0.00 21 1014.6
20260508172252 78 5 0.0 0.0 0.00 0.00 0.00 21 1015.0
20260508171645 79 3 0.0 1.0 0.00 0.00 0.00 21 1014.6
20260508171051 78 9 0.0 3.0 0.00 0.00 0.00 22 1015.0
20260508170441 78 0 1.0 3.0 0.00 0.00 0.00 22 1015.0
20260508165857 79 331 0.0 0.0 0.00 0.00 0.00 23 1015.3
20260508165254 77 351 0.0 1.0 0.00 0.00 0.00 25 1015.0
20260508164714 79 215 0.0 1.0 0.00 0.00 0.00 24 1015.0
20260508164416 78 332 0.0 3.0 0.00 0.00 0.00 24 1015.0
20260508163552 77 312 2.0 3.0 0.00 0.00 0.00 27 1015.3
20260508162949 76 203 0.0 1.0 0.00 0.00 0.00 28 1015.0
20260508162358 75 334 0.0 1.0 0.00 0.00 0.00 29 1015.3
20260508161750 74 325 0.0 1.0 0.00 0.00 0.00 29 1015.0
20260508161137 74 311 0.0 0.0 0.00 0.00 0.00 30 1015.3
20260508160555 74 339 0.0 2.0 0.00 0.00 0.00 29 1015.0
20260508160207 74 225 1.0 2.0 0.00 0.00 0.00 30 1015.0
20260508155430 74 236 0.0 3.0 0.00 0.00 0.00 29 1015.3
20260508154851 73 241 0.0 3.0 0.00 0.00 0.00 28 1015.0
20260508154254 73 223 0.0 1.0 0.00 0.00 0.00 30 1015.3
20260508154157 72 254 0.0 0.0 0.00 0.00 0.00 31 1015.3
20260508153053 72 177 0.0 0.0 0.00 0.00 0.00 33 1015.3
20260508152451 71 187 0.0 0.0 0.00 0.00 0.00 34 1015.0
20260508152123 70 255 0.0 0.0 0.00 0.00 0.00 36 1015.6
20260508151253 69 259 0.0 0.0 0.00 0.00 0.00 40 1015.3
20260508150654 70 215 0.0 0.0 0.00 0.00 0.00 41 1015.6
20260508150112 68 233 0.0 0.0 0.00 0.00 0.00 42 1015.3
20260508145513 67 221 0.0 0.0 0.00 0.00 0.00 44 1015.3
20260508145010 67 197 0.0 0.0 0.00 0.00 0.00 44 1015.0
20260508144511 66 230 0.0 0.0 0.00 0.00 0.00 48 1015.3
20260508143848 65 197 0.0 0.0 0.00 0.00 0.00 51 1015.3
20260508143513 65 218 0.0 0.0 0.00 0.00 0.00 53 1015.3
20260508142658 64 152 0.0 0.0 0.00 0.00 0.00 54 1015.0
20260508142054 63 195 0.0 0.0 0.00 0.00 0.00 57 1015.3
20260508141453 62 213 0.0 0.0 0.00 0.00 0.00 59 1015.3
20260508140851 61 229 0.0 0.0 0.00 0.00 0.00 61 1015.3
20260508140304 61 209 0.0 0.0 0.00 0.00 0.00 62 1015.6
20260508135655 60 235 0.0 0.0 0.00 0.00 0.00 63 1015.6
20260508135109 59 213 0.0 0.0 0.00 0.00 0.00 65 1015.3
20260508134446 59 207 0.0 0.0 0.00 0.00 0.00 67 1015.3
20260508134114 58 203 0.0 0.0 0.00 0.00 0.00 68 1015.3
20260508133253 56 197 0.0 0.0 0.00 0.00 0.00 70 1015.3
20260508132648 56 200 0.0 0.0 0.00 0.00 0.00 71 1015.0
20260508132056 55 200 0.0 0.0 0.00 0.00 0.00 72 1015.3
20260508131453 54 200 0.0 0.0 0.00 0.00 0.00 74 1015.3
20260508130851 53 203 0.0 0.0 0.00 0.00 0.00 72 1015.0
20260508130510 53 204 0.0 0.0 0.00 0.00 0.00 72 1015.0
20260508125700 51 204 0.0 0.0 0.00 0.00 0.00 74 1015.0
20260508125055 50 204 0.0 0.0 0.00 0.00 0.00 75 1015.3
20260508124457 48 204 0.0 0.0 0.00 0.00 0.00 78 1015.0
20260508123856 47 204 0.0 0.0 0.00 0.00 0.00 79 1015.3
20260508123255 47 202 0.0 0.0 0.00 0.00 0.00 80 1015.0
20260508122906 47 202 0.0 0.0 0.00 0.00 0.00 81 1015.0
20260508122023 47 203 0.0 0.0 0.00 0.00 0.00 80 1014.6
20260508121435 48 203 0.0 0.0 0.00 0.00 0.00 81 1015.0
20260508120849 49 204 0.0 0.0 0.00 0.00 0.00 81 1014.6
20260508120514 49 204 0.0 0.0 0.00 0.00 0.00 81 1015.0
20260508115652 49 204 0.0 0.0 0.00 0.00 0.00 80 1015.0
20260508115053 49 204 0.0 0.0 0.00 0.00 0.00 80 1014.6
20260508114718 49 204 0.0 0.0 0.00 0.00 0.00 80 1014.6
20260508113853 49 204 0.0 0.0 0.00 0.00 0.00 79 1014.6
20260508113515 50 204 0.0 0.0 0.00 0.00 0.00 79 1014.6
20260508112704 49 204 0.0 0.0 0.00 0.00 0.00 79 1014.6
20260508112113 50 204 0.0 0.0 0.00 0.00 0.00 77 1014.6
20260508111452 51 204 0.0 0.0 0.00 0.00 0.00 77 1015.0
20260508110853 51 204 0.0 0.0 0.00 0.00 0.00 76 1014.6